Flag for Spain Weather past 2 weeks in Almería, Spain

Now
75 °F

Clear.


Feels Like: 77 °F
Forecast: 67 / 89 °F
Wind: 2 mph from North

Location: Almeria / Aeropuerto

Current Time: Jul 23, 2014 at 10:02:22 AM

Latest Report: Jul 23, 2014 at 8:00 AM


Visibility: 10 mi

Pressure: 29.89 "Hg

Humidity: 36%

Dew point: 46 °F

Location of AlmeríaLocation

Historic Weather in Almería — Graph

°F

Almería temperature yesterday

Maximum temperature yesterday: 84 °F (at 10:30 AM)
Minimum temperature yesterday: 72 °F (at 7:30 AM)
Average temperature yesterday: 80 °F

Past Weeks' High & Low Weather Summary

 TemperatureHumidityPressure
High99 °F (Jul 16, 3:00 PM)89% (Jul 19, 5:00 AM)30.07 "Hg (Jul 19, 5:00 AM)
Low70 °F (Jul 9, 6:00 AM)15% (Jul 21, 11:30 AM)29.77 "Hg (Jul 19, 6:30 PM)
Average80 °F61%29.98 "Hg
* Reported Jul 8 8:00 AM — Jul 23 8:00 AM, Almería, Weather by CustomWeather, © 2014

Note: Actual official high and low records may vary slightly from our data, if they occured in-between our weather recording intervals... More about our weather records

Advertising

Almería weather history for previous 24 hours

 ConditionsComfort  
Time TempWeatherWind HumidityBarometerVisibility
8:00 AM
Jul 23
75 °FClear.2 mph36%29.89 "Hg10 mi
7:30 AM73 °FClear.6 mph38%29.89 "Hg10 mi
7:00 AM75 °FClear.8 mph39%29.89 "Hg10 mi
6:30 AM75 °FClear.9 mph44%29.86 "Hg10 mi
6:00 AM75 °FPassing clouds.3 mph41%29.89 "HgN/A
5:30 AM75 °FClear.3 mph41%29.89 "Hg10 mi
5:00 AM73 °FClear.1 mph50%29.89 "Hg10 mi
7:00 PM
Jul 22
81 °FPassing clouds.3 mph66%29.92 "HgN/A
6:30 PM81 °FPassing clouds.5 mph74%29.92 "HgN/A
6:00 PM81 °FPassing clouds.6 mph74%29.92 "HgN/A
5:30 PM81 °FPassing clouds.6 mph70%29.92 "HgN/A
5:00 PM81 °FPassing clouds.7 mph70%29.95 "HgN/A
4:30 PM82 °FPassing clouds.6 mph58%29.95 "HgN/A
4:00 PM82 °FPassing clouds.6 mph62%29.95 "HgN/A
3:30 PM82 °FPassing clouds.7 mph58%29.98 "HgN/A
3:00 PM82 °FPassing clouds.7 mph62%29.98 "HgN/A
2:30 PM82 °FPassing clouds.6 mph62%29.98 "HgN/A
2:00 PM82 °FPassing clouds.6 mph58%29.98 "HgN/A
1:30 PM81 °FSunny.8 mph66%30.01 "Hg10 mi
1:00 PM82 °FPassing clouds.8 mph66%30.01 "HgN/A
12:30 PM81 °FPassing clouds.8 mph58%30.01 "HgN/A
12:00 PM84 °FPassing clouds.7 mph51%30.01 "HgN/A
11:30 AM82 °FPassing clouds.5 mph48%30.01 "HgN/A
11:00 AM82 °FPassing clouds.5 mph48%30.01 "HgN/A
10:30 AM84 °FSunny.6 mph37%30.01 "Hg10 mi
10:00 AM81 °FSunny.2 mph45%30.01 "Hg10 mi
Weather by CustomWeather, © 2014

See weather overviewHow to use our weather pages